• Processing (Info)

  • MPEC 2022-Q100 : 2022 QO3

    The following Minor Planet Electronic Circular may be linked-to from your own Web pages, but must not otherwise be redistributed electronically.

    A form allowing access to any MPEC is at the bottom of this page.


    Read MPEC 2022-Q99 Read MPEC 2022-Q101


    M.P.E.C. 2022-Q100                              Issued 2022 August 23, 17:51 UT
    
         The Minor Planet Electronic Circulars contain information on unusual
             minor planets and routine data on comets.  They are published
        on behalf of Division F of the International Astronomical Union by the
              Minor Planet Center, Smithsonian Astrophysical Observatory,
                              Cambridge, MA 02138, U.S.A.
    
                 Prepared using the Tamkin Foundation Computer Network
    
                                  MPC@CFA.HARVARD.EDU
                URL https://www.minorplanetcenter.net/    ISSN 1523-6714
    
                                    2022 QO3                                 
    
    
    Observations:
         K22Q03O* C2022 08 21.09665918 14 26.935-51 39 02.38         18.04cVEQ100W68
         K22Q03O  C2022 08 21.10026318 14 37.879-51 38 48.30         18.30cVEQ100W68
         K22Q03O  C2022 08 21.10665018 14 57.480-51 38 22.42         17.87cVEQ100W68
         K22Q03O  C2022 08 21.11666418 15 28.188-51 37 41.88         18.05cVEQ100W68
         K22Q03O  C2022 08 21.93880818 56 30.746-50 23 31.52         18.30oVEQ100M22
         K22Q03O  C2022 08 21.93925918 56 31.814-50 23 28.75         18.29oVEQ100M22
         K22Q03O  C2022 08 21.93970918 56 33.125-50 23 25.04         17.66oVEQ100M22
         K22Q03O  C2022 08 21.94015918 56 34.284-50 23 21.55         17.23oVEQ100M22
         K22Q03O  C2022 08 21.94061018 56 35.424-50 23 18.10         18.01oVEQ100M22
         K22Q03O KC2022 08 22.02245919 00 35.701-50 15 41.04         18.5 GXEQ100Y00
         K22Q03O KC2022 08 22.02823519 00 50.280-50 14 57.65         18.5 GXEQ100Y00
         K22Q03O KC2022 08 22.03383719 01 04.453-50 14 15.38         18.6 GXEQ100Y00
         K22Q03O KC2022 08 22.42047 19 18 03.45 -49 23 01.9          18.1 VqEQ100E23
         K22Q03O KC2022 08 22.44004 19 18 48.76 -49 20 26.1          18.6 VqEQ100E23
         K22Q03O KC2022 08 22.45046 19 19 12.81 -49 19 00.3                qEQ100E23
         K22Q03O KC2022 08 23.00586019 40 34.086-47 58 42.31         18.1 GXEQ100Y00
         K22Q03O KC2022 08 23.00857119 40 39.424-47 58 17.92         18.3 GXEQ100Y00
         K22Q03O KC2022 08 23.01128419 40 44.737-47 57 53.19         17.9 GXEQ100Y00
    
    Observer details:
    E23 Arcadia.  Observer A. Hidas.  0.35-m f/1.9 reflector + CCD.
    M22 ATLAS South Africa, Sutherland.  Observers L. Denneau, R. Siverd, J.
        Tonry, H. Weiland.  Measurers L. Denneau, N. Erasmus, A. Fitzsimmons, A.
        Lawrence, J. Robinson, R. Siverd, J. Tonry, H. Weiland.  0.5-m Reflector +
        CCD.
    W68 ATLAS Chile, Rio Hurtado.  Observers L. Denneau, R. Siverd, J. Tonry, H.
        Weiland.  Measurers L. Denneau, N. Erasmus, A. Fitzsimmons, A. Lawrence,
        J. Robinson, R. Siverd, J. Tonry, H. Weiland.  0.5-m Reflector + CCD.
    Y00 SONEAR Observatory, Oliveira.  Observer C. Jacques.  0.28-m f/2.2
        reflector + CCD, 0.45-m f/2.9 reflector + CCD.
    
    Orbital elements:
    2022 QO3                                                 Earth MOID = 0.0106 AU
    Epoch 2022 Aug. 9.0 TT = JDT 2459800.5                  Veres                   
    M  27.60801              (2000.0)            P               Q                  
    n   0.71918110     Peri.  153.46979     -0.02084960     +0.99957303             
    a   1.2337975      Node   115.32959     -0.92125966     -0.01125399             
    e   0.2462723      Incl.    1.29775     -0.38838890     -0.02696485             
    P   1.37           H   24.04          G   0.15           U   7                  
    Residuals in seconds of arc
    220821 W68  0.1-  0.3-    220821 M22  0.7+  0.1+    220822 E23  1.1+  0.5+
    220821 W68  0.5-  0.2-    220821 M22  0.4+  0.1+    220822 E23  1.0+  0.1+
    220821 W68  0.6+  0.4+    220821 M22  0.1-  0.0     220822 E23  1.3+  1.2+
    220821 W68 (2.2+  0.3+)   220822 Y00  2.5-  1.5-    220823 Y00  0.5+  0.4-
    220821 M22  0.7+  0.7+    220822 Y00  2.6-  1.1-    220823 Y00  0.3+  0.6-
    220821 M22  0.5-  0.1-    220822 Y00  2.3-  0.9-    220823 Y00  0.2-  0.5-
    
    Ephemeris:
    2022 QO3                 a,e,i = 1.23, 0.25, 1                   q = 0.9299
    Date    TT    R. A. (2000) Decl.     Delta      r    Elong.  Phase     V
    2022 07 24    11 25 33.9 +03 34 26   0.1069  0.9505    49.9   125.2    24.3
    ...
    2022 08 08    12 14 06.5 -10 07 31   0.04935 0.9848    52.5   125.2    22.7
    ...
    2022 08 16    14 04 03.6 -36 27 43   0.02651 1.0084    79.8    98.7    19.7
    ...
    2022 08 22    18 59 37.0 -50 15 48   0.02703 1.0279   126.5    52.3    18.2
    2022 08 23    19 40 16.3 -47 57 26   0.02910 1.0313   132.6    46.3    18.2
    2022 08 24    20 11 57.9 -45 18 55   0.03155 1.0347   137.6    41.2    18.2
    ...
    2022 08 30    21 41 21.0 -32 25 26   0.05096 1.0559   153.9    24.8    18.8
    ...
    2022 09 07    22 17 22.0 -24 07 50   0.08260 1.0855   159.3    19.2    19.8
    ...
    2022 09 22    22 41 25.2 -17 22 33   0.1520  1.1437   155.3    21.6    21.3
    
    M. P. C. Staff               (C) Copyright 2022 MPC           M.P.E.C. 2022-Q100
    


    Read MPEC 2022-Q99 Read MPEC 2022-Q101


    MPEC number:

    Enter an MPEC number in one of the following forms:

    • 1997-B01 (the full form)
    • J97B01 (the packed version of the full form)
    • B01 (the abbreviated form)